• Em Portugal
  • Lista de países
  • Para 7 dias
  • Temperatura da água
  • Mapas de satélite
  • Mapa do tempo
  • Widgets de tempo
  • user-avatar
    Iniciar Sessão

    Previsão horária em Ghazni

    Hoje, 26 Setembro, Terça-feira

    Tempo Temperatura Precipitação Vento Pressão Humidade
    00:00 +17°C° 0 mm 2 m/s 587 mmHg 17%
    01:00 +17°C° 0 mm 2 m/s 587 mmHg 18%
    02:00 +16°C° 0 mm 2 m/s 587 mmHg 19%
    03:00 +15°C° 0 mm 2 m/s 586 mmHg 20%
    04:00 +15°C° 0 mm 2 m/s 586 mmHg 21%
    05:00 +14°C° 0 mm 3 m/s 586 mmHg 21%
    06:00 +16°C° 0 mm 3 m/s 587 mmHg 20%
    07:00 +16°C° 0 mm 2 m/s 587 mmHg 19%
    08:00 +17°C° 0 mm 2 m/s 588 mmHg 19%
    09:00 +18°C° 0 mm 2 m/s 588 mmHg 17%
    10:00 +21°C° 0 mm 1 m/s 589 mmHg 15%
    11:00 +23°C° 0 mm 1 m/s 589 mmHg 12%
    12:00 +24°C° 0 mm 1 m/s 589 mmHg 11%
    13:00 +24°C° 0 mm 1 m/s 589 mmHg 10%
    14:00 +25°C° 0 mm 2 m/s 589 mmHg 9%
    15:00 +25°C° 0 mm 2 m/s 589 mmHg 9%
    16:00 +25°C° 0 mm 3 m/s 589 mmHg 9%
    17:00 +25°C° 0 mm 3 m/s 589 mmHg 9%
    18:00 +24°C° 0 mm 3 m/s 589 mmHg 10%
    19:00 +23°C° 0 mm 2 m/s 588 mmHg 11%
    20:00 +20°C° 0 mm 2 m/s 588 mmHg 12%
    21:00 +20°C° 0 mm 1 m/s 588 mmHg 13%
    22:00 +19°C° 0 mm 1 m/s 588 mmHg 14%
    23:00 +19°C° 0 mm 1 m/s 588 mmHg 15%

    Amanhã, 27 Setembro, Quarta-feira

    Tempo Temperatura Precipitação Vento Pressão Humidade
    00:00 +18°C° 0 mm 1 m/s 587 mmHg 16%
    01:00 +16°C° 0 mm 1 m/s 587 mmHg 16%
    02:00 +16°C° 0 mm 1 m/s 587 mmHg 17%
    03:00 +15°C° 0 mm 1 m/s 587 mmHg 17%
    04:00 +15°C° 0 mm 1 m/s 587 mmHg 18%
    05:00 +14°C° 0 mm 1 m/s 587 mmHg 18%
    06:00 +15°C° 0 mm 1 m/s 587 mmHg 17%
    07:00 +16°C° 0 mm 1 m/s 588 mmHg 16%
    08:00 +17°C° 0 mm 2 m/s 589 mmHg 15%
    09:00 +20°C° 0 mm 1 m/s 589 mmHg 13%
    10:00 +21°C° 0 mm 1 m/s 590 mmHg 12%
    11:00 +23°C° 0 mm 1 m/s 591 mmHg 10%
    12:00 +24°C° 0 mm 1 m/s 590 mmHg 10%
    13:00 +24°C° 0 mm 1 m/s 590 mmHg 9%
    14:00 +25°C° 0 mm 2 m/s 590 mmHg 8%
    15:00 +25°C° 0 mm 2 m/s 590 mmHg 8%
    16:00 +26°C° 0 mm 2 m/s 590 mmHg 8%
    17:00 +26°C° 0 mm 3 m/s 590 mmHg 8%
    18:00 +24°C° 0 mm 2 m/s 589 mmHg 9%
    19:00 +23°C° 0 mm 2 m/s 589 mmHg 11%
    20:00 +20°C° 0 mm 2 m/s 589 mmHg 12%
    21:00 +20°C° 0 mm 2 m/s 589 mmHg 12%
    22:00 +19°C° 0 mm 2 m/s 588 mmHg 13%
    23:00 +19°C° 0 mm 1 m/s 588 mmHg 14%

    Depois de amanhã, 28 Setembro, Quinta-feira

    Tempo Temperatura Precipitação Vento Pressão Humidade
    00:00 +18°C° 0 mm 1 m/s 588 mmHg 15%
    01:00 +17°C° 0 mm 2 m/s 587 mmHg 16%
    02:00 +16°C° 0 mm 2 m/s 587 mmHg 16%
    03:00 +16°C° 0 mm 2 m/s 587 mmHg 17%
    04:00 +15°C° 0 mm 2 m/s 587 mmHg 18%
    05:00 +14°C° 0 mm 1 m/s 586 mmHg 19%
    06:00 +15°C° 0 mm 1 m/s 587 mmHg 18%
    07:00 +18°C° 0 mm 1 m/s 588 mmHg 18%
    08:00 +19°C° 0 mm 1 m/s 588 mmHg 17%
    09:00 +20°C° 0 mm 1 m/s 589 mmHg 15%
    10:00 +22°C° 0 mm 1 m/s 589 mmHg 13%
    11:00 +23°C° 0 mm 1 m/s 590 mmHg 11%
    12:00 +24°C° 0 mm 2 m/s 590 mmHg 10%
    13:00 +25°C° 0 mm 2 m/s 590 mmHg 9%
    14:00 +26°C° 0 mm 3 m/s 590 mmHg 9%
    15:00 +26°C° 0 mm 3 m/s 589 mmHg 8%
    16:00 +26°C° 0 mm 4 m/s 589 mmHg 8%
    17:00 +26°C° 0 mm 4 m/s 589 mmHg 8%
    18:00 +25°C° 0 mm 4 m/s 589 mmHg 10%
    19:00 +22°C° 0 mm 4 m/s 589 mmHg 12%
    20:00 +21°C° 0 mm 3 m/s 588 mmHg 13%
    21:00 +20°C° 0 mm 3 m/s 588 mmHg 14%
    22:00 +19°C° 0 mm 3 m/s 588 mmHg 15%
    23:00 +18°C° 0 mm 2 m/s 588 mmHg 16%

    29 Setembro, Sexta-feira

    Tempo Temperatura Precipitação Vento Pressão Humidade
    00:00 +18°C° 0 mm 2 m/s 587 mmHg 16%
    01:00 +17°C° 0 mm 2 m/s 587 mmHg 17%
    02:00 +16°C° 0 mm 2 m/s 587 mmHg 18%
    03:00 +16°C° 0 mm 2 m/s 586 mmHg 19%
    04:00 +15°C° 0 mm 2 m/s 586 mmHg 19%
    05:00 +15°C° 0 mm 2 m/s 586 mmHg 20%
    06:00 +16°C° 0 mm 2 m/s 587 mmHg 19%
    07:00 +17°C° 0 mm 2 m/s 587 mmHg 18%
    08:00 +17°C° 0 mm 2 m/s 588 mmHg 17%
    09:00 +19°C° 0 mm 2 m/s 589 mmHg 16%
    10:00 +21°C° 0 mm 1 m/s 589 mmHg 14%
    11:00 +23°C° 0 mm 1 m/s 590 mmHg 12%
    12:00 +24°C° 0 mm 2 m/s 589 mmHg 11%
    13:00 +25°C° 0 mm 2 m/s 589 mmHg 10%
    14:00 +26°C° 0 mm 2 m/s 589 mmHg 9%
    15:00 +26°C° 0 mm 3 m/s 589 mmHg 9%
    16:00 +26°C° 0 mm 3 m/s 589 mmHg 9%
    17:00 +26°C° 0 mm 3 m/s 589 mmHg 9%
    18:00 +24°C° 0 mm 3 m/s 589 mmHg 10%
    19:00 +22°C° 0 mm 3 m/s 589 mmHg 12%
    20:00 +20°C° 0 mm 2 m/s 588 mmHg 14%
    21:00 +20°C° 0 mm 2 m/s 588 mmHg 15%
    22:00 +19°C° 0 mm 2 m/s 588 mmHg 15%
    23:00 +18°C° 0 mm 2 m/s 588 mmHg 16%

    30 Setembro, Sábado

    Tempo Temperatura Precipitação Vento Pressão Humidade
    00:00 +18°C° 0 mm 2 m/s 588 mmHg 17%
    01:00 +17°C° 0 mm 2 m/s 588 mmHg 18%
    02:00 +16°C° 0 mm 2 m/s 587 mmHg 19%
    03:00 +16°C° 0 mm 2 m/s 587 mmHg 20%
    04:00 +15°C° 0 mm 2 m/s 587 mmHg 21%
    05:00 +15°C° 0 mm 2 m/s 587 mmHg 22%
    06:00 +16°C° 0 mm 2 m/s 588 mmHg 21%
    07:00 +16°C° 0 mm 2 m/s 588 mmHg 20%
    08:00 +17°C° 0 mm 2 m/s 589 mmHg 19%
    09:00 +19°C° 0 mm 2 m/s 590 mmHg 17%
    10:00 +20°C° 0 mm 2 m/s 590 mmHg 15%
    11:00 +23°C° 0 mm 1 m/s 591 mmHg 12%
    12:00 +24°C° 0 mm 2 m/s 591 mmHg 11%
    13:00 +25°C° 0 mm 2 m/s 590 mmHg 10%
    14:00 +26°C° 0 mm 3 m/s 590 mmHg 8%
    15:00 +26°C° 0 mm 3 m/s 590 mmHg 8%
    16:00 +26°C° 0 mm 3 m/s 590 mmHg 8%
    17:00 +26°C° 0 mm 4 m/s 590 mmHg 8%
    18:00 +25°C° 0 mm 3 m/s 590 mmHg 10%
    19:00 +22°C° 0 mm 3 m/s 589 mmHg 11%
    20:00 +21°C° 0 mm 3 m/s 589 mmHg 13%
    21:00 +20°C° 0 mm 2 m/s 589 mmHg 14%
    22:00 +19°C° 0 mm 2 m/s 589 mmHg 15%
    23:00 +18°C° 0 mm 2 m/s 588 mmHg 16%

    1 Outubro, Domingo

    Tempo Temperatura Precipitação Vento Pressão Humidade
    00:00 +18°C° 0 mm 2 m/s 588 mmHg 17%
    01:00 +17°C° 0 mm 2 m/s 588 mmHg 18%
    02:00 +16°C° 0 mm 1 m/s 587 mmHg 19%
    03:00 +16°C° 0 mm 2 m/s 587 mmHg 20%
    04:00 +15°C° 0 mm 2 m/s 587 mmHg 20%
    05:00 +15°C° 0 mm 2 m/s 587 mmHg 21%
    06:00 +16°C° 0 mm 2 m/s 587 mmHg 21%
    07:00 +17°C° 0 mm 2 m/s 588 mmHg 20%
    08:00 +18°C° 0 mm 2 m/s 589 mmHg 19%
    09:00 +20°C° 0 mm 1 m/s 589 mmHg 17%
    10:00 +22°C° 0 mm 1 m/s 590 mmHg 15%
    11:00 +23°C° 0 mm 1 m/s 590 mmHg 12%
    12:00 +24°C° 0 mm 1 m/s 590 mmHg 11%
    13:00 +25°C° 0 mm 1 m/s 590 mmHg 10%
    14:00 +26°C° 0 mm 1 m/s 590 mmHg 9%
    15:00 +26°C° 0 mm 2 m/s 590 mmHg 9%
    16:00 +26°C° 0 mm 2 m/s 589 mmHg 8%
    17:00 +26°C° 0 mm 2 m/s 589 mmHg 8%
    18:00 +25°C° 0 mm 2 m/s 589 mmHg 10%
    19:00 +23°C° 0 mm 2 m/s 589 mmHg 12%
    20:00 +21°C° 0 mm 2 m/s 589 mmHg 14%
    21:00 +20°C° 0 mm 2 m/s 588 mmHg 15%
    22:00 +19°C° 0 mm 2 m/s 588 mmHg 16%
    23:00 +19°C° 0 mm 1 m/s 588 mmHg 17%
    Mostrar mais